| time (UTC) | temp F | wind direction | speed MPH | gust MPH | rain 1hr in | rain 24hr in | rain mn in | humidity % | barometer mb |
| 20260503194336 | 80 | 80 | 4.0 | 13.0 | 0.00 | 0.00 | 0.00 | 38 | 1020.6 |
| 20260503193326 | 80 | 113 | 5.0 | 12.0 | 0.00 | 0.00 | 0.00 | 38 | 1020.6 |
| 20260503192336 | 80 | 150 | 7.0 | 13.0 | 0.00 | 0.00 | 0.00 | 39 | 1020.8 |
| 20260503191328 | 80 | 217 | 4.0 | 12.0 | 0.00 | 0.00 | 0.00 | 38 | 1020.8 |
| 20260503190340 | 79 | 84 | 3.0 | 12.0 | 0.00 | 0.00 | 0.00 | 39 | 1020.9 |
| 20260503185347 | 79 | 111 | 3.0 | 12.0 | 0.00 | 0.00 | 0.00 | 40 | 1021.0 |
| 20260503184339 | 79 | 146 | 6.0 | 12.0 | 0.00 | 0.00 | 0.00 | 39 | 1021.3 |
| 20260503183349 | 80 | 227 | 4.0 | 10.0 | 0.00 | 0.00 | 0.00 | 40 | 1021.3 |
| 20260503182340 | 79 | 94 | 5.0 | 16.0 | 0.00 | 0.00 | 0.00 | 36 | 1021.5 |
| 20260503181351 | 79 | 158 | 5.0 | 14.0 | 0.00 | 0.00 | 0.00 | 42 | 1021.6 |
| 20260503180333 | 79 | 127 | 3.0 | 10.0 | 0.00 | 0.00 | 0.00 | 41 | 1021.9 |
| 20260503175324 | 79 | 124 | 3.0 | 10.0 | 0.00 | 0.00 | 0.00 | 41 | 1022.0 |
| 20260503174335 | 78 | 122 | 5.0 | 13.0 | 0.00 | 0.00 | 0.00 | 40 | 1022.2 |
| 20260503173327 | 79 | 158 | 4.0 | 8.0 | 0.00 | 0.00 | 0.00 | 38 | 1022.4 |
| 20260503172339 | 79 | 143 | 6.0 | 9.0 | 0.00 | 0.00 | 0.00 | 39 | 1022.5 |
| 20260503171325 | 79 | 158 | 2.0 | 10.0 | 0.00 | 0.00 | 0.00 | 45 | 1022.6 |
| 20260503170337 | 78 | 231 | 3.0 | 9.0 | 0.00 | 0.00 | 0.00 | 41 | 1022.9 |
| 20260503150350 | 72 | 259 | 2.0 | 6.0 | 0.00 | 0.00 | 0.00 | 59 | 1023.4 |
| 20260503131340 | 60 | 153 | 0.0 | 0.0 | 0.00 | 0.00 | 0.00 | 86 | 1023.0 |
| 20260503130330 | 59 | 153 | 0.0 | 0.0 | 0.00 | 0.00 | 0.00 | 86 | 1023.0 |
| 20260503110322 | 49 | 153 | 0.0 | 0.0 | 0.00 | 0.00 | 0.00 | 95 | 1021.7 |
| 20260503090333 | 50 | 153 | 0.0 | 0.0 | 0.00 | 0.00 | 0.00 | 95 | 1021.3 |
| 20260503081347 | 51 | 153 | 0.0 | 0.0 | 0.00 | 0.00 | 0.00 | 94 | 1021.3 |
| 20260503080329 | 51 | 153 | 0.0 | 0.0 | 0.00 | 0.00 | 0.00 | 94 | 1021.3 |
| 20260503072334 | 52 | 153 | 0.0 | 0.0 | 0.00 | 0.00 | 0.00 | 93 | 1021.6 |
| 20260503071325 | 52 | 153 | 0.0 | 0.0 | 0.00 | 0.00 | 0.00 | 93 | 1021.6 |
| 20260503070328 | 52 | 153 | 0.0 | 0.0 | 0.00 | 0.00 | 0.00 | 93 | 1021.7 |
| 20260503060332 | 53 | 153 | 0.0 | 0.0 | 0.00 | 0.00 | 0.00 | 92 | 1021.9 |
| 20260503054331 | 54 | 153 | 0.0 | 0.0 | 0.00 | 0.00 | 0.00 | 91 | 1021.9 |
| 20260503053342 | 54 | 153 | 0.0 | 0.0 | 0.00 | 0.00 | 0.00 | 91 | 1022.0 |
| 20260503052334 | 55 | 153 | 0.0 | 0.0 | 0.00 | 0.00 | 0.00 | 91 | 1022.1 |
| 20260503051345 | 55 | 153 | 0.0 | 0.0 | 0.00 | 0.00 | 0.00 | 91 | 1022.0 |
| 20260503050336 | 54 | 153 | 0.0 | 0.0 | 0.00 | 0.00 | 0.00 | 90 | 1022.0 |
| 20260503045347 | 55 | 153 | 0.0 | 0.0 | 0.00 | 0.00 | 0.00 | 90 | 1022.0 |
| 20260503044330 | 55 | 153 | 0.0 | 0.0 | 0.00 | 0.00 | 0.00 | 89 | 1021.9 |
| 20260503043322 | 56 | 153 | 0.0 | 0.0 | 0.00 | 0.00 | 0.00 | 89 | 1021.9 |
| 20260503042333 | 56 | 153 | 0.0 | 0.0 | 0.00 | 0.00 | 0.00 | 89 | 1021.9 |
| 20260503041325 | 56 | 153 | 0.0 | 0.0 | 0.00 | 0.00 | 0.00 | 88 | 1021.8 |
| 20260503040336 | 57 | 153 | 0.0 | 0.0 | 0.00 | 0.00 | 0.00 | 88 | 1021.8 |
| 20260503035327 | 57 | 153 | 0.0 | 0.0 | 0.00 | 0.00 | 0.00 | 86 | 1021.9 |
| 20260503034339 | 58 | 153 | 0.0 | 0.0 | 0.00 | 0.00 | 0.00 | 86 | 1021.8 |
| 20260503033332 | 58 | 153 | 0.0 | 0.0 | 0.00 | 0.00 | 0.00 | 85 | 1021.6 |
| 20260503032323 | 58 | 153 | 0.0 | 0.0 | 0.00 | 0.00 | 0.00 | 83 | 1021.7 |
| 20260503031334 | 58 | 153 | 0.0 | 0.0 | 0.00 | 0.00 | 0.00 | 84 | 1021.5 |
| 20260503030324 | 59 | 153 | 0.0 | 0.0 | 0.00 | 0.00 | 0.00 | 82 | 1021.5 |
| 20260503025335 | 60 | 153 | 0.0 | 0.0 | 0.00 | 0.00 | 0.00 | 78 | 1021.4 |
| 20260503024327 | 61 | 153 | 0.0 | 0.0 | 0.00 | 0.00 | 0.00 | 78 | 1021.3 |
| 20260503023334 | 61 | 153 | 0.0 | 0.0 | 0.00 | 0.00 | 0.00 | 77 | 1021.1 |
| 20260503022344 | 62 | 153 | 0.0 | 0.0 | 0.00 | 0.00 | 0.00 | 75 | 1020.9 |
| 20260503021332 | 63 | 153 | 0.0 | 0.0 | 0.00 | 0.00 | 0.00 | 70 | 1020.8 |
| 20260503020344 | 64 | 153 | 0.0 | 0.0 | 0.00 | 0.00 | 0.00 | 67 | 1020.8 |
| 20260503015327 | 65 | 153 | 0.0 | 0.0 | 0.00 | 0.00 | 0.00 | 65 | 1020.8 |
| 20260503014347 | 66 | 153 | 0.0 | 1.0 | 0.00 | 0.00 | 0.00 | 64 | 1020.7 |
| 20260503013329 | 67 | 153 | 0.0 | 1.0 | 0.00 | 0.00 | 0.00 | 62 | 1020.8 |
| 20260503012340 | 68 | 153 | 0.0 | 1.0 | 0.00 | 0.00 | 0.00 | 59 | 1020.6 |
| 20260503011331 | 69 | 105 | 0.0 | 2.0 | 0.00 | 0.00 | 0.00 | 56 | 1020.4 |
| 20260503010341 | 70 | 101 | 0.0 | 2.0 | 0.00 | 0.00 | 0.00 | 53 | 1020.3 |
| 20260503005332 | 71 | 103 | 0.0 | 2.0 | 0.00 | 0.00 | 0.00 | 52 | 1020.3 |
| 20260503004322 | 72 | 103 | 1.0 | 2.0 | 0.00 | 0.00 | 0.00 | 52 | 1020.3 |
| 20260503003331 | 72 | 41 | 0.0 | 4.0 | 0.00 | 0.00 | 0.00 | 52 | 1020.3 |
| 20260503002322 | 72 | 40 | 2.0 | 4.0 | 0.00 | 0.00 | 0.00 | 49 | 1020.1 |
| 20260503001334 | 73 | 75 | 1.0 | 4.0 | 0.00 | 0.00 | 0.00 | 49 | 1020.2 |
| 20260503000325 | 73 | 51 | 2.0 | 5.0 | 0.00 | 0.00 | 0.00 | 47 | 1020.1 |
| 20260502235334 | 73 | 64 | 2.0 | 6.0 | 0.00 | 0.00 | 0.00 | 48 | 1020.0 |
| 20260502234324 | 73 | 40 | 2.0 | 6.0 | 0.00 | 0.00 | 0.00 | 46 | 1019.9 |
| 20260502233336 | 73 | 53 | 2.0 | 10.0 | 0.00 | 0.00 | 0.00 | 47 | 1020.0 |
| 20260502232326 | 74 | 5 | 5.0 | 12.0 | 0.00 | 0.00 | 0.00 | 45 | 1019.9 |
| 20260502231336 | 74 | 30 | 4.0 | 7.0 | 0.00 | 0.00 | 0.00 | 43 | 1020.0 |
| 20260502230346 | 74 | 60 | 1.0 | 8.0 | 0.00 | 0.00 | 0.00 | 48 | 1019.9 |
| 20260502225336 | 74 | 25 | 7.0 | 11.0 | 0.00 | 0.05 | 0.00 | 45 | 1019.8 |
| 20260502224347 | 75 | 25 | 1.0 | 5.0 | 0.00 | 0.05 | 0.00 | 47 | 1019.8 |
| 20260502223327 | 74 | 29 | 1.0 | 7.0 | 0.00 | 0.05 | 0.00 | 49 | 1019.8 |
| 20260502222343 | 74 | 42 | 2.0 | 13.0 | 0.00 | 0.05 | 0.00 | 49 | 1020.1 |
| 20260502221322 | 74 | 53 | 4.0 | 7.0 | 0.00 | 0.05 | 0.00 | 50 | 1019.9 |
| 20260502220332 | 74 | 344 | 3.0 | 17.0 | 0.00 | 0.05 | 0.00 | 45 | 1020.0 |
| 20260502215349 | 75 | 110 | 2.0 | 7.0 | 0.00 | 0.11 | 0.00 | 48 | 1020.0 |
| 20260502214330 | 73 | 354 | 5.0 | 10.0 | 0.00 | 0.11 | 0.00 | 51 | 1020.1 |
| 20260502213339 | 74 | 5 | 7.0 | 14.0 | 0.00 | 0.11 | 0.00 | 54 | 1020.3 |
| 20260502212329 | 74 | 360 | 3.0 | 8.0 | 0.00 | 0.11 | 0.00 | 51 | 1020.5 |
| 20260502211338 | 74 | 96 | 3.0 | 11.0 | 0.00 | 0.11 | 0.00 | 48 | 1020.6 |
| 20260502210326 | 73 | 77 | 5.0 | 9.0 | 0.00 | 0.11 | 0.00 | 52 | 1020.9 |
| 20260502205335 | 73 | 63 | 5.0 | 12.0 | 0.00 | 0.13 | 0.00 | 52 | 1021.1 |
| 20260502204324 | 73 | 27 | 6.0 | 10.0 | 0.00 | 0.13 | 0.00 | 52 | 1021.2 |
| 20260502203334 | 74 | 33 | 6.0 | 11.0 | 0.00 | 0.13 | 0.00 | 50 | 1021.2 |
| 20260502202323 | 73 | 50 | 6.0 | 10.0 | 0.00 | 0.13 | 0.00 | 49 | 1021.3 |
| 20260502201332 | 73 | 41 | 5.0 | 11.0 | 0.00 | 0.13 | 0.00 | 50 | 1021.3 |
| 20260502200322 | 73 | 37 | 6.0 | 13.0 | 0.00 | 0.13 | 0.00 | 48 | 1021.5 |
| 20260502195335 | 72 | 34 | 6.0 | 17.0 | 0.00 | 0.17 | 0.00 | 50 | 1021.4 |